Location: ??
(35.5052°N, 139.7262°E)
Time: 17:12:48
(UTC+00:00)

OAO 1 - Pass Details

Date: 29 October 2021
Orbit: 773 x 784 km, 35.0° (Epoch: 28 November)

Event Time Altitude Azimuth Distance (km) Brightness Sun altitude
Rises 08:37:00 0° 272° (W) 3,244 9.7 -10.3°
Reaches altitude 10° 08:39:28 10° 272° (W) 2,318 8.5 -10.8°
Maximum altitude 08:44:58 86° 184° (S) 782 4.5 -11.9°
Enters shadow 08:49:18 17° 96° (E) 1,893 5.9 -12.7°
